Location: Riverside Cemetery
(38.3047°N, 99.7773°W)
Time: 03:35:09
(UTC+00:00)

SJ 16-02 - Pass Details

Date: 19 September 2020
Orbit: 606 x 616 km, 75.0° (Epoch: 22 October)

Event Time Altitude Azimuth Distance (km) Brightness Sun altitude
Rises 10:31:01 0° 349° (N) 2,874 4.9 -22.6°
Reaches altitude 10° 10:33:20 10° 355° (N) 1,968 4.1 -22.2°
Maximum altitude 10:37:34 46° 70° (ENE) 821 2.4 -21.4°
Drops below altitude 10° 10:41:47 10° 144° (SE) 1,960 4.1 -20.6°
Sets 10:44:05 0° 150° (SSE) 2,862 4.9 -20.2°
